Starlink 3634

operational
NORAD ID: 51798 Int'l Des: 2022-017 Owner: SPXS Country: US Constellation: starlink
LEOCIRCULAR

About Starlink 3634

Description loading...

Live Position

Loading 3D Globe...

Upcoming Passes

Altitude History

Altitude vs Time

uPlot chart will show altitude changes over time

Two-Line Element Set

1 51798U 22017AG 26062.12105322 -.00000033 00000-0 15987-4 0 9995
2 51798 53.2184 18.6090 0001400 81.7665 278.3486 15.08840483222978
Epoch: Mar 3, 2026 • Age: 35 hours

Current Status

Altitude 540.4 km
Velocity 7.60 km/s
Sub-Earth Point 26.05°N, 161.23°W
Launch Date Feb 25, 2022
Age 4 years
Type internet

Technical Details

Classification Payload
Mass 297.00 kg
Dry Mass 275.00 kg
Total Mass 297.00 kg
Length 0.20 m
Diameter 2.80 m
Span 9.00 m
Shape Box + pan
Manufacturer SPXS
Bus Type Starlink
Phase Status In Orbit
Owner/State SPXS/US

Large Constellations

Loading constellations...